| time (UTC) | temp F | wind direction | speed MPH | gust MPH | rain 1hr in | rain 24hr in | rain mn in | humidity % | barometer mb |
| 20260901022021 | 59 | 225 | 20.0 | 28.0 | 0.00 | 0.11 | 0.00 | 57 | 1015.9 |
| 20260901021038 | 57 | 229 | 20.0 | 27.0 | 0.00 | 0.11 | 0.00 | 55 | 1015.7 |
| 20260901020116 | 58 | 222 | 21.0 | 30.0 | 0.00 | 0.11 | 0.00 | 55 | 1015.8 |
| 20260901015111 | 57 | 230 | 21.0 | 29.0 | 0.00 | 0.11 | 0.00 | 57 | 1015.8 |
| 20260901014107 | 57 | 220 | 20.0 | 29.0 | 0.00 | 0.11 | 0.00 | 60 | 1016.1 |
| 20260901013126 | 58 | 208 | 19.0 | 27.0 | 0.00 | 0.11 | 0.00 | 61 | 1016.2 |
| 20260901012101 | 58 | 220 | 21.0 | 27.0 | 0.00 | 0.11 | 0.00 | 61 | 1016.4 |
| 20260901011117 | 58 | 216 | 21.0 | 29.0 | 0.00 | 0.11 | 0.00 | 61 | 1016.5 |
| 20260901010054 | 59 | 213 | 20.0 | 27.0 | 0.00 | 0.11 | 0.00 | 61 | 1016.5 |
| 20260901005049 | 59 | 233 | 16.0 | 26.0 | 0.00 | 0.11 | 0.00 | 63 | 1016.6 |
| 20260901004047 | 57 | 237 | 17.0 | 23.0 | 0.00 | 0.11 | 0.00 | 61 | 1016.7 |
| 20260901003043 | 58 | 214 | 21.0 | 30.0 | 0.00 | 0.11 | 0.00 | 62 | 1016.9 |
| 20260901002039 | 57 | 213 | 20.0 | 29.0 | 0.00 | 0.11 | 0.00 | 62 | 1016.8 |
| 20260901001036 | 56 | 186 | 19.0 | 30.0 | 0.00 | 0.11 | 0.00 | 62 | 1016.8 |
| 20260901000032 | 56 | 222 | 23.0 | 30.0 | 0.00 | 0.11 | 0.00 | 60 | 1016.8 |
| 20260831235049 | 58 | 211 | 22.0 | 30.0 | 0.00 | 0.11 | 0.00 | 60 | 1016.6 |
| 20260831234027 | 58 | 217 | 21.0 | 28.0 | 0.00 | 0.11 | 0.00 | 58 | 1016.7 |
| 20260831233022 | 58 | 221 | 23.0 | 31.0 | 0.00 | 0.11 | 0.00 | 59 | 1016.7 |
| 20260831232019 | 58 | 217 | 22.0 | 36.0 | 0.00 | 0.12 | 0.00 | 61 | 1016.6 |
| 20260831231115 | 57 | 219 | 23.0 | 32.0 | 0.00 | 0.12 | 0.00 | 61 | 1016.6 |
| 20260831230113 | 56 | 233 | 21.0 | 27.0 | 0.00 | 0.12 | 0.00 | 64 | 1016.6 |
| 20260831225110 | 54 | 203 | 23.0 | 30.0 | 0.00 | 0.12 | 0.00 | 67 | 1016.7 |
| 20260831224105 | 56 | 208 | 21.0 | 33.0 | 0.00 | 0.12 | 0.00 | 61 | 1016.7 |
| 20260831223101 | 57 | 217 | 22.0 | 29.0 | 0.00 | 0.12 | 0.00 | 62 | 1016.6 |
| 20260831222058 | 56 | 219 | 22.0 | 31.0 | 0.00 | 0.12 | 0.00 | 61 | 1016.5 |
| 20260831221054 | 57 | 212 | 19.0 | 27.0 | 0.00 | 0.14 | 0.00 | 61 | 1016.4 |
| 20260831220053 | 56 | 230 | 20.0 | 27.0 | 0.00 | 0.14 | 0.00 | 64 | 1016.3 |
| 20260831215047 | 55 | 216 | 20.0 | 28.0 | 0.00 | 0.14 | 0.00 | 70 | 1016.2 |
| 20260831214044 | 54 | 193 | 18.0 | 24.0 | 0.00 | 0.14 | 0.00 | 76 | 1015.9 |
| 20260831213040 | 51 | 218 | 17.0 | 23.0 | 0.00 | 0.14 | 0.00 | 74 | 1015.8 |
| 20260831212039 | 51 | 216 | 17.0 | 24.0 | 0.00 | 0.14 | 0.00 | 74 | 1015.8 |
| 20260831211033 | 51 | 213 | 20.0 | 28.0 | 0.00 | 0.14 | 0.00 | 75 | 1015.7 |
| 20260831210035 | 52 | 216 | 18.0 | 25.0 | 0.00 | 0.14 | 0.00 | 79 | 1015.7 |
| 20260831205026 | 51 | 222 | 17.0 | 24.0 | 0.00 | 0.14 | 0.00 | 81 | 1015.5 |
| 20260831204023 | 49 | 230 | 17.0 | 24.0 | 0.00 | 0.14 | 0.00 | 80 | 1015.5 |
| 20260831203021 | 49 | 198 | 21.0 | 34.0 | 0.00 | 0.14 | 0.00 | 80 | 1015.5 |
| 20260831202036 | 49 | 224 | 17.0 | 34.0 | 0.00 | 0.14 | 0.00 | 80 | 1015.3 |
| 20260831201112 | 48 | 197 | 16.0 | 24.0 | 0.00 | 0.14 | 0.00 | 80 | 1015.1 |
| 20260831200110 | 48 | 222 | 14.0 | 18.0 | 0.00 | 0.14 | 0.00 | 80 | 1014.8 |
| 20260831195105 | 48 | 226 | 13.0 | 21.0 | 0.00 | 0.18 | 0.00 | 79 | 1014.4 |
| 20260831194102 | 48 | 230 | 17.0 | 26.0 | 0.00 | 0.18 | 0.00 | 78 | 1014.2 |
| 20260831193100 | 48 | 210 | 16.0 | 28.0 | 0.00 | 0.18 | 0.00 | 78 | 1014.1 |
| 20260831192055 | 47 | 221 | 12.0 | 19.0 | 0.00 | 0.19 | 0.00 | 78 | 1014.0 |
| 20260831191054 | 47 | 199 | 14.0 | 21.0 | 0.00 | 0.19 | 0.00 | 79 | 1013.8 |
| 20260831190048 | 47 | 231 | 15.0 | 21.0 | 0.00 | 0.19 | 0.00 | 80 | 1013.8 |
| 20260831185045 | 47 | 221 | 16.0 | 25.0 | 0.00 | 0.19 | 0.00 | 81 | 1013.4 |
| 20260831184042 | 47 | 211 | 13.0 | 22.0 | 0.00 | 0.19 | 0.00 | 80 | 1013.2 |
| 20260831183037 | 47 | 223 | 11.0 | 16.0 | 0.00 | 0.19 | 0.00 | 80 | 1013.3 |
| 20260831182033 | 47 | 232 | 14.0 | 20.0 | 0.00 | 0.19 | 0.00 | 80 | 1013.3 |
| 20260831181032 | 48 | 209 | 18.0 | 30.0 | 0.00 | 0.20 | 0.00 | 80 | 1013.2 |
| 20260831180027 | 48 | 216 | 16.0 | 21.0 | 0.00 | 0.20 | 0.00 | 79 | 1013.2 |
| 20260831175043 | 48 | 202 | 22.0 | 27.0 | 0.00 | 0.20 | 0.00 | 78 | 1013.1 |
| 20260831174020 | 47 | 212 | 17.0 | 27.0 | 0.00 | 0.20 | 0.00 | 78 | 1012.9 |
| 20260831173019 | 47 | 216 | 16.0 | 22.0 | 0.00 | 0.20 | 0.00 | 77 | 1012.9 |
| 20260831172136 | 47 | 197 | 15.0 | 21.0 | 0.00 | 0.20 | 0.00 | 77 | 1012.8 |
| 20260831171130 | 47 | 195 | 19.0 | 27.0 | 0.00 | 0.20 | 0.00 | 79 | 1012.7 |
| 20260831170106 | 48 | 233 | 19.0 | 24.0 | 0.00 | 0.20 | 0.00 | 79 | 1012.7 |
| 20260831165102 | 48 | 228 | 16.0 | 28.0 | 0.00 | 0.20 | 0.00 | 79 | 1012.6 |
| 20260831164119 | 48 | 230 | 13.0 | 20.0 | 0.00 | 0.20 | 0.00 | 77 | 1012.4 |
| 20260831163057 | 47 | 180 | 16.0 | 21.0 | 0.00 | 0.20 | 0.00 | 76 | 1012.3 |
| 20260831162052 | 48 | 192 | 19.0 | 25.0 | 0.00 | 0.20 | 0.00 | 75 | 1012.2 |
| 20260831161048 | 48 | 200 | 18.0 | 27.0 | 0.00 | 0.20 | 0.00 | 75 | 1012.0 |
| 20260831160047 | 47 | 199 | 19.0 | 27.0 | 0.00 | 0.20 | 0.00 | 76 | 1011.8 |
| 20260831155041 | 47 | 194 | 16.0 | 23.0 | 0.00 | 0.20 | 0.00 | 76 | 1011.7 |
| 20260831154040 | 47 | 213 | 18.0 | 24.0 | 0.00 | 0.20 | 0.00 | 76 | 1011.5 |
| 20260831153034 | 48 | 225 | 19.0 | 28.0 | 0.00 | 0.20 | 0.00 | 76 | 1011.4 |
| 20260831152033 | 47 | 216 | 16.0 | 26.0 | 0.00 | 0.20 | 0.00 | 75 | 1011.4 |
| 20260831151027 | 48 | 221 | 15.0 | 21.0 | 0.00 | 0.20 | 0.00 | 75 | 1011.6 |
| 20260831150024 | 49 | 221 | 18.0 | 28.0 | 0.00 | 0.20 | 0.00 | 75 | 1011.6 |
| 20260831145027 | 49 | 213 | 15.0 | 24.0 | 0.00 | 0.21 | 0.00 | 74 | 1011.5 |
| 20260831144058 | 48 | 221 | 14.0 | 20.0 | 0.00 | 0.21 | 0.00 | 73 | 1011.5 |
| 20260831143113 | 49 | 227 | 16.0 | 23.0 | 0.00 | 0.21 | 0.00 | 76 | 1011.7 |
| 20260831142110 | 49 | 221 | 20.0 | 29.0 | 0.00 | 0.21 | 0.00 | 75 | 1011.6 |
| 20260831141107 | 49 | 214 | 17.0 | 24.0 | 0.00 | 0.21 | 0.00 | 75 | 1011.5 |
| 20260831135120 | 49 | 209 | 13.0 | 22.0 | 0.00 | 0.21 | 0.00 | 73 | 1011.3 |
| 20260831134057 | 50 | 242 | 17.0 | 26.0 | 0.00 | 0.21 | 0.00 | 72 | 1011.3 |
| 20260831133053 | 50 | 233 | 19.0 | 34.0 | 0.00 | 0.21 | 0.00 | 73 | 1011.3 |
| 20260831132049 | 49 | 231 | 16.0 | 27.0 | 0.00 | 0.21 | 0.00 | 73 | 1011.2 |
| 20260831131045 | 49 | 225 | 16.0 | 19.0 | 0.00 | 0.21 | 0.00 | 75 | 1011.1 |
| 20260831130041 | 49 | 225 | 21.0 | 25.0 | 0.00 | 0.21 | 0.00 | 82 | 1010.9 |
| 20260831125058 | 49 | 225 | 16.0 | 25.0 | 0.00 | 0.21 | 0.00 | 84 | 1010.8 |
| 20260831124036 | 49 | 231 | 18.0 | 29.0 | 0.01 | 0.21 | 0.00 | 87 | 1010.7 |
| 20260831123033 | 49 | 225 | 17.0 | 23.0 | 0.04 | 0.21 | 0.00 | 88 | 1010.7 |
| 20260831122030 | 49 | 210 | 17.0 | 26.0 | 0.04 | 0.21 | 0.00 | 89 | 1010.8 |
| 20260831121024 | 49 | 231 | 14.0 | 21.0 | 0.04 | 0.21 | 0.00 | 89 | 1010.6 |
| 20260831120021 | 50 | 228 | 11.0 | 16.0 | 0.04 | 0.21 | 0.00 | 88 | 1010.5 |
| 20260831115019 | 50 | 230 | 12.0 | 17.0 | 0.04 | 0.21 | 0.21 | 88 | 1010.4 |
| 20260831114115 | 50 | 242 | 13.0 | 21.0 | 0.02 | 0.20 | 0.20 | 88 | 1010.4 |
| 20260831113112 | 50 | 242 | 11.0 | 18.0 | 0.00 | 0.18 | 0.18 | 88 | 1010.3 |
| 20260831112127 | 50 | 217 | 12.0 | 17.0 | 0.00 | 0.18 | 0.18 | 87 | 1010.3 |
| 20260831111104 | 50 | 208 | 10.0 | 15.0 | 0.00 | 0.18 | 0.18 | 87 | 1010.4 |
| 20260831105057 | 50 | 225 | 12.0 | 17.0 | 0.00 | 0.18 | 0.18 | 87 | 1010.3 |
| 20260831104054 | 51 | 229 | 12.0 | 17.0 | 0.00 | 0.18 | 0.18 | 87 | 1010.3 |
| 20260831103135 | 50 | 221 | 8.0 | 14.0 | 0.01 | 0.18 | 0.18 | 87 | 1010.2 |
| 20260831102049 | 50 | 228 | 13.0 | 22.0 | 0.02 | 0.18 | 0.18 | 86 | 1010.4 |
| 20260831101044 | 50 | 194 | 12.0 | 19.0 | 0.05 | 0.18 | 0.18 | 85 | 1010.4 |
| 20260831100042 | 50 | 241 | 11.0 | 17.0 | 0.05 | 0.18 | 0.18 | 84 | 1010.2 |
| 20260831095037 | 50 | 223 | 9.0 | 13.0 | 0.05 | 0.18 | 0.18 | 83 | 1010.1 |
| 20260831094033 | 50 | 219 | 13.0 | 19.0 | 0.05 | 0.18 | 0.18 | 82 | 1009.9 |
| 20260831093029 | 50 | 203 | 20.0 | 27.0 | 0.04 | 0.17 | 0.17 | 80 | 1009.5 |
| 20260831092026 | 51 | 224 | 14.0 | 22.0 | 0.02 | 0.15 | 0.15 | 80 | 1009.4 |
| 20260831091022 | 51 | 244 | 12.0 | 19.0 | 0.00 | 0.13 | 0.13 | 80 | 1009.4 |
| 20260831090040 | 51 | 226 | 14.0 | 19.0 | 0.00 | 0.13 | 0.13 | 80 | 1009.4 |
| 20260831085137 | 51 | 238 | 14.0 | 20.0 | 0.00 | 0.13 | 0.13 | 80 | 1009.3 |
| 20260831084112 | 51 | 220 | 14.0 | 22.0 | 0.00 | 0.13 | 0.13 | 80 | 1009.2 |
| 20260831083109 | 51 | 215 | 13.0 | 19.0 | 0.00 | 0.13 | 0.13 | 80 | 1009.1 |
| 20260831082107 | 51 | 220 | 14.0 | 21.0 | 0.00 | 0.13 | 0.13 | 81 | 1008.9 |
| 20260831081101 | 51 | 230 | 12.0 | 19.0 | 0.00 | 0.13 | 0.13 | 82 | 1008.9 |
| 20260831080059 | 51 | 225 | 13.0 | 22.0 | 0.00 | 0.13 | 0.13 | 83 | 1008.8 |
| 20260831075117 | 51 | 225 | 12.0 | 18.0 | 0.00 | 0.13 | 0.13 | 84 | 1008.7 |
| 20260831074052 | 51 | 240 | 10.0 | 15.0 | 0.00 | 0.13 | 0.13 | 84 | 1008.8 |
| 20260831073048 | 51 | 232 | 11.0 | 21.0 | 0.00 | 0.13 | 0.13 | 83 | 1008.6 |
| 20260831072044 | 51 | 220 | 10.0 | 15.0 | 0.00 | 0.13 | 0.13 | 82 | 1008.6 |
| 20260831071043 | 51 | 216 | 14.0 | 21.0 | 0.00 | 0.13 | 0.13 | 81 | 1008.5 |
| 20260831070039 | 51 | 218 | 11.0 | 16.0 | 0.00 | 0.13 | 0.13 | 81 | 1008.2 |
| 20260831065034 | 51 | 230 | 12.0 | 18.0 | 0.00 | 0.13 | 0.13 | 81 | 1008.3 |
| 20260831064052 | 51 | 234 | 16.0 | 24.0 | 0.00 | 0.14 | 0.13 | 81 | 1008.3 |
| 20260831063027 | 51 | 224 | 14.0 | 22.0 | 0.00 | 0.14 | 0.13 | 81 | 1008.4 |
| 20260831062023 | 51 | 226 | 16.0 | 26.0 | 0.00 | 0.14 | 0.13 | 81 | 1008.3 |
| 20260831061042 | 52 | 238 | 16.0 | 24.0 | 0.00 | 0.14 | 0.13 | 81 | 1008.1 |
| 20260831060016 | 52 | 215 | 18.0 | 28.0 | 0.00 | 0.14 | 0.13 | 80 | 1008.0 |
| 20260831055114 | 52 | 197 | 19.0 | 30.0 | 0.00 | 0.14 | 0.13 | 80 | 1007.8 |
| 20260831054109 | 52 | 228 | 14.0 | 24.0 | 0.00 | 0.14 | 0.13 | 80 | 1007.6 |
| 20260831053108 | 53 | 218 | 20.0 | 29.0 | 0.00 | 0.14 | 0.13 | 81 | 1007.7 |
| 20260831052102 | 53 | 210 | 22.0 | 32.0 | 0.00 | 0.14 | 0.13 | 83 | 1007.7 |
| 20260831051059 | 53 | 234 | 16.0 | 27.0 | 0.01 | 0.14 | 0.13 | 84 | 1007.7 |
| 20260831050058 | 53 | 207 | 18.0 | 24.0 | 0.01 | 0.14 | 0.13 | 84 | 1007.6 |
| 20260831045052 | 54 | 190 | 19.0 | 24.0 | 0.01 | 0.14 | 0.13 | 83 | 1007.6 |
| 20260831044048 | 54 | 208 | 17.0 | 23.0 | 0.01 | 0.14 | 0.13 | 81 | 1007.7 |
| 20260831043045 | 54 | 252 | 16.0 | 23.0 | 0.01 | 0.19 | 0.13 | 80 | 1007.4 |
| 20260831042103 | 55 | 215 | 15.0 | 28.0 | 0.01 | 0.19 | 0.13 | 77 | 1007.3 |
| 20260831041058 | 56 | 240 | 13.0 | 21.0 | 0.01 | 0.19 | 0.12 | 76 | 1007.2 |
| 20260831040034 | 55 | 228 | 14.0 | 21.0 | 0.01 | 0.19 | 0.12 | 76 | 1007.2 |
| 20260831035051 | 56 | 242 | 16.0 | 26.0 | 0.01 | 0.19 | 0.12 | 78 | 1007.4 |
| 20260831034027 | 56 | 214 | 20.0 | 30.0 | 0.01 | 0.19 | 0.12 | 79 | 1007.4 |
| 20260831033024 | 55 | 224 | 18.0 | 27.0 | 0.01 | 0.19 | 0.12 | 77 | 1007.3 |
| 20260831032021 | 55 | 229 | 14.0 | 26.0 | 0.01 | 0.19 | 0.12 | 75 | 1007.0 |
| 20260831031019 | 56 | 228 | 14.0 | 25.0 | 0.00 | 0.18 | 0.11 | 75 | 1006.7 |
| 20260831030113 | 57 | 259 | 13.0 | 21.0 | 0.00 | 0.18 | 0.11 | 75 | 1006.9 |
| 20260831025131 | 56 | 235 | 11.0 | 20.0 | 0.00 | 0.18 | 0.11 | 75 | 1006.9 |
| 20260831024108 | 56 | 228 | 17.0 | 26.0 | 0.00 | 0.18 | 0.11 | 74 | 1006.9 |
| 20260831023104 | 56 | 242 | 17.0 | 26.0 | 0.00 | 0.18 | 0.11 | 73 | 1006.8 |